Location: Kimberly
(42.5380°N, 114.3640°W)
Time: 12:45:26
(UTC-07:00)

Hubble Space Telescope - Visible Passes

Search period start: 20 January 2021 00:00
Search period end: 30 January 2021 00:00
Orbit: 536 x 539 km, 28.5° (Epoch: 20 January)

Date Brightness Start Highest point End Pass type
(mag) Time Alt. Az. Time Alt. Az. Time Alt. Az.
20 Jan 3.4 19:02:11 10° S 19:02:59 10° S 19:03:48 10° SSE visible
21 Jan 3.4 18:50:51 10° SSW 18:52:01 11° S 18:53:11 10° SSE visible
22 Jan 3.4 18:39:42 10° SSW 18:41:02 11° S 18:42:22 10° SSE visible
23 Jan 3.4 18:28:43 10° SSW 18:30:04 11° S 18:31:25 10° SSE visible
24 Jan 3.5 18:17:50 10° SSW 18:19:06 11° S 18:20:20 10° SSE visible
